Location: Edinburgh
(55.9500°N, 3.1600°W)
Time: 12:36:33
(UTC+01:00)

Envisat - Pass Details

Date: 11 October 2017
Orbit: 764 x 766 km, 98.2° (Epoch: 17 October)

Event Time Altitude Azimuth Distance (km) Brightness Sun altitude
Exits shadow 20:30:04 19° 156° (SSE) 1,750 4.5 -18.7°
Maximum altitude 20:33:44 80° 72° (ENE) 785 2.9 -19.2°
Drops below altitude 10° 20:38:50 10° 346° (NNW) 2,317 5.9 -19.8°
Sets 20:41:09 0° 345° (NNW) 3,247 6.7 -20.1°
